[[{"header":{"parameterUnit":"m.s-1","parameterCategory":1,"la1":30.2991,"la2":30.254,"lo1":-89.0895,"lo2":-89.0444,"dy":0.0017,"dx":0.0017,"nx":28,"ny":28,"refTime":"2025-12-27T03:00:00:Z","depth":0,"parameterNumber":2,"parameterNumberName":"U-component_of_WINDS"},"data":[0,0,0,0,0,0,0,0,0,0,0,0,0,0,0,0,0,0,0,0,0,0,0,0,0,0,0,0,0,0,0,0,0,0,0,0,0,0,0,0,0,0,0,0,0,0,0,0,0,0,0,0,0,0,0,0,0,0,-0.7547,-0.7546,0,-0.7443,-0.7442,-0.7441,-0.7389,-0.7389,-0.7389,-0.7389,-0.728,-0.7278,-0.7275,0,0,0,0,0,0,0,0,0,0,0,0,0,-0.7698,-0.7695,-0.7547,-0.7546,-0.7544,-0.7444,-0.7442,-0.7441,-0.7389,-0.7389,-0.7389,-0.7389,-0.7281,-0.7278,-0.7274,0,0,0,0,0,0,0,0,0,0,0,0,0,-0.7617,-0.7694,-0.7547,-0.7506,-0.7502,-0.7444,-0.7442,-0.744,-0.7389,-0.7389,-0.7389,-0.7389,-0.7282,-0.7278,-0.7274,-0.7249,0,0,-0.7261,-0.7259,0,0,0,0,0,0,0,0,-0.7622,-0.7611,-0.7514,-0.7509,-0.7504,-0.7429,-0.7456,-0.7376,-0.7389,-0.7431,-0.7389,-0.7388,-0.733,-0.7321,-0.7302,-0.7243,-0.7239,-0.7261,-0.7258,-0.7256,-0.7255,0,0,0,0,0,0,0,-0.7627,-0.7616,-0.7506,-0.7512,-0.7506,-0.7492,-0.7481,-0.744,-0.7382,-0.7428,-0.7424,-0.7412,-0.7327,-0.7306,-0.7299,-0.7237,-0.7261,-0.7257,-0.7254,-0.7253,-0.7152,-0.7152,0,0,0,0,0,0,-0.764,-0.7621,-0.7509,-0.7503,-0.7564,-0.749,-0.7477,-0.7453,-0.7382,-0.7372,-0.7412,-0.741,-0.7314,-0.7304,-0.7295,-0.726,-0.7256,-0.7252,-0.725,-0.7152,-0.7152,-0.7152,0,0,0,0,0,0,-0.7643,-0.763,-0.7513,-0.7561,-0.7545,-0.7487,-0.7461,-0.7451,-0.743,-0.7371,-0.736,-0.7402,-0.7313,-0.7301,-0.726,-0.7256,-0.725,-0.7246,-0.7152,-0.7152,-0.7152,-0.719,0,0,0,0,0,0,-0.7648,-0.7632,-0.7622,-0.7561,-0.7542,-0.7481,-0.746,-0.7449,-0.7423,-0.7419,-0.7358,-0.7348,-0.7312,-0.7267,-0.7256,-0.725,-0.7243,-0.7152,-0.7152,-0.7152,-0.7189,-0.7191,-0.7193,0,0,0,0,0,-0.7653,-0.7637,-0.7622,-0.7609,-0.7529,-0.7481,-0.747,-0.743,-0.7423,-0.7412,-0.7374,-0.735,-0.7258,-0.7263,-0.7251,-0.7243,-0.7152,-0.7152,-0.7152,-0.7188,-0.7191,-0.7193,0,0,0,0,0,0,-0.7698,-0.7628,-0.7611,-0.7574,-0.7534,-0.7472,-0.7458,-0.7435,-0.7395,-0.7393,-0.7344,-0.7331,-0.7295,-0.7264,-0.7272,-0.7214,-0.7203,-0.72,-0.7235,-0.7237,-0.7239,-0.7247,-0.7239,0,0,0,0,0,-0.7704,-0.7671,-0.7612,-0.7585,-0.7566,-0.7515,-0.7493,-0.7466,-0.7422,-0.7404,-0.7363,-0.7321,-0.7283,-0.7258,-0.722,-0.7185,-0.717,-0.7173,-0.7175,-0.7177,-0.7175,-0.7154,-0.7154,-0.7151,-0.7151,-0.7151,0,0,-0.7715,-0.7673,-0.7655,-0.7593,-0.7559,-0.7525,-0.7501,-0.7467,-0.7442,-0.7399,-0.7358,-0.7327,-0.7276,-0.7238,-0.722,-0.7212,-0.7173,-0.7177,-0.7179,-0.7175,-0.7154,-0.7154,-0.7154,-0.7151,-0.7151,-0.7151,0,0,-0.7718,-0.7684,-0.7657,-0.7623,-0.7572,-0.7539,-0.7533,-0.7475,-0.7452,-0.7411,-0.7378,-0.7346,-0.7281,-0.7247,-0.7221,-0.7212,-0.7188,-0.72,-0.7211,-0.7191,-0.7191,-0.7191,-0.7187,-0.7186,-0.7199,-0.7199,-0.7199,0,-0.7738,-0.7688,-0.7646,-0.7614,-0.7587,-0.7548,-0.752,-0.749,-0.7428,-0.741,-0.7403,-0.7321,-0.7284,-0.7238,-0.7235,-0.7216,-0.7207,-0.7207,-0.7195,-0.7194,-0.7193,-0.7189,-0.7188,-0.7201,-0.72,-0.72,-0.72,0,-0.7715,-0.768,-0.7665,-0.7607,-0.7579,-0.7549,-0.7503,-0.7479,-0.7454,-0.7421,-0.7379,-0.7334,-0.7285,-0.7273,-0.7248,-0.7222,-0.7219,-0.7204,-0.7191,-0.7196,-0.7191,-0.7189,-0.7203,-0.7202,-0.7202,-0.7201,0,0,-0.7742,-0.7663,-0.7657,-0.7631,-0.7571,-0.7543,-0.7512,-0.7465,-0.7445,-0.7405,-0.7376,-0.7323,-0.7308,-0.7279,-0.725,-0.7232,-0.7227,-0.7219,-0.7217,-0.7221,-0.7195,-0.7206,-0.7205,-0.7211,-0.7211,-0.721,-0.7199,0,-0.7736,-0.7678,-0.764,-0.7597,-0.7564,-0.7526,-0.7499,-0.7459,-0.7428,-0.7395,-0.736,-0.7322,-0.7307,-0.7289,-0.727,-0.7232,-0.7221,-0.7232,-0.7183,-0.7182,-0.7196,-0.7202,-0.7214,-0.7205,-0.7197,-0.7196,-0.7196,0,-0.7722,-0.7682,-0.7636,-0.758,-0.7565,-0.7541,-0.7495,-0.7464,-0.7418,-0.7397,-0.7364,-0.7335,-0.7299,-0.7291,-0.7241,-0.7249,-0.7227,-0.7206,-0.7204,-0.7197,-0.7189,-0.7194,-0.7201,-0.72,-0.7193,-0.7193,-0.7193,0,-0.7745,-0.7681,-0.7645,-0.7623,-0.7557,-0.7541,-0.7513,-0.7467,-0.7442,-0.7401,-0.7384,-0.734,-0.7316,-0.7282,-0.7241,-0.7239,-0.7195,-0.7183,-0.7175,-0.7176,-0.7166,-0.7167,-0.7169,-0.7154,-0.7154,-0.7154,-0.7154,0,-0.7742,-0.7715,-0.7654,-0.7632,-0.76,-0.7557,-0.7527,-0.7495,-0.7455,-0.7425,-0.739,-0.7363,-0.7312,-0.7278,-0.7246,-0.7209,-0.7199,-0.718,-0.7171,-0.7182,-0.7184,-0.7166,-0.7165,-0.7154,-0.7154,-0.7154,-0.7154,0,-0.7763,-0.7721,-0.7679,-0.7621,-0.7605,-0.7585,-0.7534,-0.7511,-0.7478,-0.7441,-0.743,-0.7378,-0.7337,-0.7293,-0.7237,-0.7215,-0.7179,-0.7168,-0.7195,-0.719,-0.7184,-0.7185,-0.7173,-0.7169,-0.7158,-0.7159,-0.7159,0,-0.7763,-0.7741,-0.7681,-0.7659,-0.7631,-0.7596,-0.757,-0.7527,-0.75,-0.7447,-0.743,-0.7386,-0.7349,-0.7284,-0.7241,-0.7198,-0.7185,-0.7184,-0.7178,-0.719,-0.7184,-0.7185,-0.7182,-0.7185,-0.7186,-0.7186,-0.7186,0,-0.7767,-0.7748,-0.7712,-0.7668,-0.7638,-0.7601,-0.7564,-0.7547,-0.7496,-0.7469,-0.7427,-0.7398,-0.7341,-0.7297,-0.7249,-0.7219,-0.7194,-0.7188,-0.7184,-0.7194,-0.721,-0.7201,-0.7199,-0.7189,-0.7188,-0.7188,-0.7188,-0.7188,-0.7777,-0.7756,-0.771,-0.767,-0.7638,-0.7603,-0.7578,-0.7542,-0.7507,-0.7457,-0.7434,-0.7391,-0.7346,-0.7278,-0.7249,-0.7215,-0.7207,-0.7201,-0.72,-0.7198,-0.7201,-0.7217,-0.7206,-0.7206,-0.7206,-0.7206,-0.7205,0,-0.7779,-0.7748,-0.7712,-0.766,-0.7629,-0.7609,-0.7566,-0.7541,-0.7505,-0.7465,-0.7429,-0.738,-0.7338,-0.7292,-0.7247,-0.7229,-0.7216,-0.7218,-0.7218,-0.7212,-0.721,-0.7218,-0.7229,-0.7229,-0.7229,-0.7229,-0.7229,-0.7229,-0.7776,-0.7739,-0.7714,-0.766,-0.7629,-0.7587,-0.7564,-0.7532,-0.75,-0.7448,-0.7413,-0.7383,-0.7341,-0.7293,-0.7253,-0.724,-0.7225,-0.7231,-0.7215,-0.7214,-0.7212,-0.721,-0.7217,-0.7228,-0.7228,-0.7219,-0.7219,-0.7219]},{"header":{"parameterUnit":"m.s-1","parameterCategory":1,"la1":30.2991,"la2":30.254,"lo1":-89.0895,"lo2":-89.0444,"dy":0.0017,"dx":0.0017,"nx":28,"ny":28,"refTime":"2025-12-27T03:00:00:Z","depth":0,"parameterNumber":3,"parameterNumberName":"V-component_of_WINDS"},"data":[0,0,0,0,0,0,0,0,0,0,0,0,0,0,0,0,0,0,0,0,0,0,0,0,0,0,0,0,0,0,0,0,0,0,0,0,0,0,0,0,0,0,0,0,0,0,0,0,0,0,0,0,0,0,0,0,0,0,2.8794,2.8795,0,2.8813,2.8813,2.8813,2.8768,2.8767,2.8765,2.8764,2.878,2.8782,2.8784,0,0,0,0,0,0,0,0,0,0,0,0,0,2.8717,2.8718,2.8794,2.8795,2.8795,2.8813,2.8813,2.8814,2.8768,2.8767,2.8765,2.8763,2.878,2.8782,2.8784,0,0,0,0,0,0,0,0,0,0,0,0,0,2.8744,2.8719,2.8794,2.8775,2.8773,2.8813,2.8813,2.8814,2.8769,2.8767,2.8764,2.8762,2.8779,2.8781,2.8784,2.8843,0,0,2.8792,2.8793,0,0,0,0,0,0,0,0,2.8743,2.8747,2.8777,2.8776,2.8774,2.8786,2.8792,2.8823,2.8769,2.877,2.8764,2.8761,2.8784,2.8786,2.8794,2.8844,2.8845,2.8792,2.8794,2.8795,2.8796,0,0,0,0,0,0,0,2.8741,2.8746,2.8802,2.8778,2.8776,2.8764,2.8765,2.8798,2.8789,2.877,2.8767,2.877,2.8782,2.8791,2.8794,2.8845,2.8792,2.8795,2.8796,2.8797,2.8945,2.8947,0,0,0,0,0,0,2.8742,2.8745,2.8801,2.8802,2.8753,2.8767,2.8769,2.8784,2.8788,2.8787,2.8772,2.8768,2.8788,2.8791,2.8794,2.8865,2.8795,2.8798,2.8799,2.8943,2.8946,2.8948,0,0,0,0,0,0,2.8741,2.8748,2.88,2.8773,2.8779,2.8771,2.8789,2.8786,2.8795,2.8789,2.8787,2.8783,2.8786,2.8791,2.8832,2.8865,2.8799,2.8801,2.894,2.8944,2.8947,2.9006,0,0,0,0,0,0,2.8739,2.8747,2.877,2.8774,2.878,2.8839,2.8791,2.8788,2.88,2.8795,2.8799,2.8798,2.8785,2.8828,2.8834,2.8867,2.8803,2.8937,2.8942,2.8946,2.9001,2.9011,2.902,0,0,0,0,0,2.8736,2.8786,2.8772,2.8779,2.8809,2.8841,2.8844,2.8829,2.8803,2.8826,2.8822,2.8798,2.886,2.8833,2.8839,2.8874,2.8935,2.894,2.8946,2.8997,2.9009,2.902,0,0,0,0,0,0,2.8785,2.8786,2.877,2.8823,2.8832,2.8833,2.8861,2.8843,2.8859,2.8853,2.8833,2.8834,2.888,2.888,2.885,2.8931,2.8893,2.89,2.893,2.8941,2.8951,2.895,2.8805,0,0,0,0,0,2.8803,2.8829,2.8827,2.8873,2.8879,2.887,2.8883,2.887,2.8879,2.8882,2.8882,2.889,2.8911,2.8926,2.8945,2.9,2.9001,2.9027,2.9037,2.9044,2.9051,2.9081,2.9093,2.8966,2.8965,2.8965,0,0,2.8838,2.8841,2.8859,2.8884,2.8889,2.8917,2.8873,2.8904,2.8924,2.8886,2.8926,2.8926,2.8934,2.8983,2.9004,2.8985,2.9086,2.9051,2.9057,2.906,2.9088,2.91,2.9111,2.8969,2.8968,2.8968,0,0,2.8917,2.8922,2.8962,2.8969,2.8978,2.8972,2.8981,2.8985,2.8984,2.9023,2.8996,2.9019,2.9056,2.9063,2.9072,2.9154,2.9132,2.916,2.9209,2.9239,2.9249,2.9258,2.9288,2.9299,2.9166,2.9166,2.9167,0,2.896,2.9001,2.8984,2.9017,2.9029,2.8997,2.9037,2.9044,2.9059,2.9068,2.9046,2.9092,2.9095,2.9146,2.9166,2.9173,2.9184,2.916,2.9249,2.9258,2.9266,2.9295,2.9306,2.917,2.917,2.9169,2.9169,0,2.9054,2.9083,2.9113,2.9131,2.9145,2.9181,2.9169,2.9186,2.9172,2.9168,2.9208,2.921,2.923,2.9241,2.9227,2.929,2.9278,2.9253,2.9214,2.9282,2.9309,2.9319,2.9175,2.9174,2.9173,2.9172,0,0,2.9166,2.9173,2.9185,2.9193,2.9201,2.9223,2.9257,2.9277,2.9293,2.9303,2.9332,2.9364,2.9341,2.9351,2.9337,2.9363,2.943,2.9335,2.9335,2.9354,2.95,2.952,2.9533,2.9415,2.9417,2.9418,2.95,0,2.9245,2.9306,2.9292,2.9352,2.9379,2.9349,2.9378,2.9386,2.9383,2.9404,2.9399,2.9423,2.939,2.9396,2.942,2.9417,2.9459,2.941,2.9441,2.9443,2.9443,2.9547,2.9568,2.9646,2.951,2.9512,2.9513,0,2.9347,2.9364,2.9427,2.9431,2.9442,2.9469,2.9487,2.9508,2.9516,2.9511,2.9522,2.9504,2.9537,2.9497,2.9543,2.951,2.9521,2.9521,2.9524,2.9528,2.9484,2.9555,2.967,2.9682,2.9529,2.9528,2.9527,0,2.9425,2.9462,2.9505,2.9512,2.9518,2.9538,2.9542,2.9548,2.9561,2.9576,2.9584,2.9602,2.9613,2.9627,2.9613,2.9585,2.9662,2.962,2.9659,2.966,2.9678,2.9678,2.9798,2.9683,2.9683,2.9683,2.9682,0,2.9516,2.9556,2.954,2.9567,2.9611,2.9593,2.9637,2.9636,2.9642,2.9667,2.9641,2.9665,2.9645,2.9668,2.9657,2.9697,2.9701,2.9699,2.9696,2.9702,2.9703,2.9711,2.9706,2.9686,2.9685,2.9684,2.9684,0,2.9611,2.9602,2.9647,2.9649,2.9651,2.9683,2.9684,2.9709,2.9703,2.9735,2.9742,2.9733,2.9758,2.9745,2.977,2.9763,2.9816,2.9805,2.9814,2.9812,2.9853,2.985,2.9984,3.0001,2.9873,2.9874,2.9875,0,2.9671,2.9702,2.9707,2.9723,2.9729,2.9754,2.9768,2.9751,2.9766,2.9778,2.9801,2.9824,2.9841,2.9882,2.9877,2.9897,2.9887,2.9932,2.989,2.9896,2.989,2.9889,2.9892,2.9942,2.9943,2.9944,2.9945,0,2.9779,2.9773,2.9795,2.9815,2.9833,2.9847,2.986,2.9874,2.9857,2.9875,2.9901,2.9915,2.9941,2.9965,2.9981,2.9984,2.9962,2.9959,2.9969,2.9977,2.9982,2.9981,2.984,2.9956,2.9955,2.9954,2.9954,2.9953,2.986,2.9886,2.9894,2.9919,2.9927,2.9939,2.9963,2.996,2.9981,3.0003,2.9991,3.0021,3.0028,3.0049,3.0054,3.0077,3.0059,3.0073,3.0077,3.0082,3.0088,2.9977,3.0079,3.0079,3.0079,3.0078,3.0078,0,2.9968,2.9972,2.9995,3.0014,3.0033,3.0012,3.0024,3.0042,3.0069,3.0078,3.0096,3.0126,3.0148,3.0145,3.0165,3.0184,3.0175,3.019,3.0189,3.019,3.0102,3.0092,3.0197,3.0197,3.0197,3.0197,3.0197,3.0197,3.0027,3.007,3.0065,3.0112,3.0115,3.0146,3.0155,3.0166,3.0173,3.0208,3.0227,3.0224,3.0228,3.0249,3.0268,3.0266,3.0276,3.0295,3.029,3.0208,3.0197,3.0185,3.0176,3.0297,3.0297,3.0376,3.0377,3.0378]}]]